Location: Unspecified
(0.0000°N, 0.0000°E)
Time: 20:54:57
(UTC+00:00)

Vanguard 2 - Pass Details

Date: 04 October 2020
Orbit: 554 x 2937 km, 32.9° (Epoch: 20 October)

Event Time Altitude Azimuth Distance (km) Brightness Sun altitude
Rises 19:17:28 0° 216° (SW) 5,785 12.6 -22.2°
Reaches altitude 10° 19:22:25 10° 202° (SSW) 5,128 12.0 -23.4°
Maximum altitude 19:33:58 23° 155° (SSE) 4,612 11.2 -26.3°
Enters shadow 19:40:27 19° 128° (SE) 5,010 11.2 -27.9°
